Regional Weather Roundup
Issued by NWS Kansas City/Pleasant Hill, MO

Home | Current Version | Previous Version | Text Only | Print | Product List | Glossary On
Versions: 1 2 3 4 5 6 7 8 9 10 11 12 13 14 15 16 17 18 19 20 21 22 23 24 25 26 27
000
ASUS43 KEAX 290210
RWREAX

WEATHER ROUNDUP FOR EASTERN KANSAS AND NORTHWEST MISSOURI
NATIONAL WEATHER SERVICE KANSAS CITY/PLEASANT HILL MO
900 PM CDT FRI APR 28 2017

KSZ040-057-103>105-MOZ028-029-037-043-290300-
...KANSAS CITY METROPOLITAN AREA...

CITY           SKY/WX    TMP DP  RH WIND       PRES   REMARKS
K.C. INTL      DRZL/FOG  46  46 100 N12       29.90R VSB 1/2
K.C. DOWNTOWN  CLOUDY    50  48  93 N12       29.89R
LEES SUMMIT    CLOUDY    52  51  97 N13       29.88R
OLATHE - IXD   CLOUDY    51  50  96 N16       29.87R
OLATHE - OJC   CLOUDY    53  53 100 N10       29.86R
LAWRENCE       CLOUDY    49  48  97 N12       29.89R

$$

MOZ001>008-011>017-020>025-030>033-038>040-044>046-053-054-290300-
...NORTHERN AND CENTRAL MISSOURI...

CITY           SKY/WX    TMP DP  RH WIND       PRES   REMARKS
ST. JOSEPH     CLOUDY    44  44 100 N10       29.94R
MOSBY          CLOUDY    46  46 100 N9        29.90R
WHITEMAN AFB   CLOUDY    60  60 100 N6        29.83R
CLINTON        CLOUDY    61  59  94 NE5       29.83R
SEDALIA        CLOUDY    60  60 100 CALM      29.85R
WARSAW         NOT AVBL
CHILLICOTHE      N/A     46  44  93 N7        29.92R
KIRKSVILLE     CLOUDY    45  31  58 N8        29.90R HAZE

$$

MOZ041-047>049-056>058-063>065-088>090-097-290300-
...EASTERN AND SOUTHERN MISSOURI...

CITY           SKY/WX    TMP DP  RH WIND       PRES   REMARKS
ST. LOUIS INTL CLOUDY    60  56  86 E5        29.85R
SPIRIT OF STL  CLOUDY    58  58 100 E3        29.84R
COLUMBIA       CLOUDY    58  58 100 CALM      29.84R FOG
JEFFERSON CITY CLOUDY    62  58  86 CALM      29.84R
ROLLA          CLOUDY    60  60 100 E6        29.82R
OSAGE BEACH    CLOUDY    61  61 100 CALM      29.84R FOG
SPRINGFIELD    CLOUDY    64  61  90 E5        29.80R
BRANSON        MOCLDY    63  63 100 E3        29.80R FOG
JOPLIN         MOCLDY    65  61  87 VRB5      29.79R
WEST PLAINS    CLOUDY    65  63  93 CALM      29.81R FOG

$$

IAZ060-094-KSZ022-034>040-054-083-096-NEZ052-066-093-290300-
...KANSAS...SOUTHEAST NEBRASKA AND IOWA...

CITY           SKY/WX    TMP DP  RH WIND       PRES   REMARKS
TOPEKA         CLOUDY    47  47 100 N14G22    29.90R
MANHATTAN      CLOUDY    45  42  89 NE13      29.93R
EMPORIA        CLOUDY    51  50  96 N13G21    29.85R
CHANUTE        PTCLDY    62  55  77 E3        29.79R
WICHITA        CLOUDY    61  53  75 N21G30    29.78R
OMAHA          CLOUDY    43  37  79 NE8       30.00R
LINCOLN        CLOUDY    40  39  97 NE15      30.00R FOG     WCI  32
FALLS CITY     CLOUDY    44  41  89 NE10      29.95R
LAMONI         CLOUDY    43  41  93 NE12      29.92R
DES MOINES     CLOUDY    45  39  79 NE15      29.97R

$$





USA.gov is the U.S. government's official web portal to all federal, state and local government web resources and services.